Regional Weather Roundup
Issued by NWS Northern Indiana

Home | Current Version | Previous Version | Graphics & Text | Print | Product List | Glossary On
Versions: 1 2 3 4 5 6 7 8 9 10 11 12 13 14 15 16 17 18 19 20 21 22 23 24 25 26 27 28 29 30 31 32 33 34 35 36 37 38 39 40 41 42 43 44 45 46 47 48 49 50
000
ASUS43 KIWX 271810
RWRIWX

KIWX WEATHER ROUNDUP
NATIONAL WEATHER SERVICE NORTHERN INDIANA
200 PM EDT TUE JUN 27 2017

NOTE: "FAIR" INDICATES FEW OR NO CLOUDS BELOW 12,000 FEET WITH NO
SIGNIFICANT WEATHER AND/OR OBSTRUCTIONS TO VISIBILITY.

* THESE STATIONS ARE NOT UNDER NWS QUALITY CONTROL. THEY ALSO MAY NOT
  REPORT WEATHER SUCH AS PRECIPITATION OR FOG.

INZ001>027-271900-
NORTHERN INDIANA

CITY           SKY/WX    TMP DP  RH WIND       PRES   REMARKS
GARY*          MOSUNNY   73  43  33 N6        30.13S
VALPARAISO     PTSUNNY   74  46  36 NW5       30.13S
6HR MIN TEMP:  57; 6HR MAX TEMP:  74;

MICHIGAN CITY* SUNNY     70  45  40 NW8       30.14S
LAPORTE*       SUNNY     70  44  39 NW13G18   30.14S
6HR MIN TEMP:  56; 6HR MAX TEMP:  71;

KNOX*          MOSUNNY   70  36  28 NW7       30.12F
SOUTH BEND     MOSUNNY   70  44  39 NW12      30.12S
6HR MIN TEMP:  54; 6HR MAX TEMP:  71;

GOSHEN         PTSUNNY   71  47  42 W10       30.11F
6HR MIN TEMP:  56; 6HR MAX TEMP:  71;

MONTICELLO*    MOSUNNY   69  46  43 CALM      30.14S
6HR MIN TEMP:  55; 6HR MAX TEMP:  70;

LOGANSPORT*    MOSUNNY   68  46  45 NW3       30.14F
ROCHESTER*     MOSUNNY   72  46  40 NW9       30.13F
WARSAW*        PTSUNNY   68  46  45 SW10      30.12F
AUBURN*        PTSUNNY   68  43  40 W7        30.12F
FORT WAYNE     PTSUNNY   70  46  42 NW7       30.14S
6HR MIN TEMP:  56; 6HR MAX TEMP:  70;

HUNTINGTON*    PTSUNNY   68  46  45 NW3       30.13F
6HR MIN TEMP:  54; 6HR MAX TEMP:  68;

PERU/GRISSOM   MOSUNNY   69  49  48 W8        30.13F
6HR MIN TEMP:  56; 6HR MAX TEMP:  69;

MARION*        MOSUNNY   68  45  42 N7        30.15F

$$
INZ028>050-271900-
CENTRAL INDIANA

CITY           SKY/WX    TMP DP  RH WIND       PRES   REMARKS
LAFAYETTE      MOSUNNY   70  48  45 W5        30.14F
6HR MIN TEMP:  51; 6HR MAX TEMP:  71;

KOKOMO*        MOSUNNY   70  49  47 NW5       30.15F
6HR MIN TEMP:  56; 6HR MAX TEMP:  71;

MUNCIE*        SUNNY     71  45  39 N9        30.14F
6HR MIN TEMP:  58; 6HR MAX TEMP:  71;

INDIANAPOLIS   MOSUNNY   70  47  43 VRB6      30.14F
6HR MIN TEMP:  56; 6HR MAX TEMP:  71;


$$
MIZ043>046-050>051-056>058-064>065-071>073-077>080-271900-
SOUTHWEST LOWER MICHIGAN

CITY           SKY/WX    TMP DP  RH WIND       PRES   REMARKS
BATTLE CREEK   PTSUNNY   70  44  39 W14G22    30.10S
6HR MIN TEMP:  54; 6HR MAX TEMP:  72;

BENTON HARBOR  SUNNY     70  45  40 W15       30.12F
6HR MIN TEMP:  59; 6HR MAX TEMP:  70;

COLDWATER*     PTSUNNY   67  42  39 W9        30.10F
6HR MIN TEMP:  55; 6HR MAX TEMP:  71;

HILLSDALE*     MOSUNNY   70  45  40 W6G16     30.09F
HOLLAND        SUNNY     68  51  54 W15       30.11S
6HR MIN TEMP:  59; 6HR MAX TEMP:  69;

GRAND RAPIDS   PTSUNNY   70  48  45 W14       30.07F
6HR MIN TEMP:  55; 6HR MAX TEMP:  71;

KALAMAZOO      MOSUNNY   72  41  32 W9G18     30.10F
6HR MIN TEMP:  54; 6HR MAX TEMP:  73;

STURGIS*       PTSUNNY   70  49  46 NW9       30.10F
6HR MIN TEMP:  54; 6HR MAX TEMP:  70;

THREE RIVERS*  FAIR      71  44  38 NW12      30.10F
6HR MIN TEMP:  56; 6HR MAX TEMP:  71;


$$
OHZ001>008-015>018-024>025-271900-
NORTHWEST OHIO

CITY           SKY/WX    TMP DP  RH WIND       PRES   REMARKS
WAUSEON*       PTSUNNY   72  43  35 W9G18     30.10S
DEFIANCE       PTSUNNY   67  44  43 W7        30.11F
6HR MIN TEMP:  54; 6HR MAX TEMP:  68;

FINDLAY        MOSUNNY   69  43  38 VRB7      30.11F
6HR MIN TEMP:  57; 6HR MAX TEMP:  70;

TOLEDO EXPRESS PTSUNNY   70  43  37 W9        30.09F
6HR MIN TEMP:  54; 6HR MAX TEMP:  70;

TOLEDO METCALF MOSUNNY   70  43  37 W12       30.10F
6HR MIN TEMP:  56; 6HR MAX TEMP:  71;

LIMA           SUNNY     67  43  41 NW3       30.13S
6HR MIN TEMP:  55; 6HR MAX TEMP:  74;


$$
AND FOR LAKE MICHIGAN COASTAL AND OPEN LAKE BUOY OBSERVATIONS

STATION/POSITION TEMP    WIND        PRES    VSBY  WAVE
                 AIR SEA DIR/SP/G                  HT/PER
                 (F)     (DEG/KT/KT) (MB)    (MI)  (FT/S)
CALUMET HARBOR    66      70/  8/ 10 1019.4F
MICHIGAN CITY     66     270/  5/  6   N/A
BURNS HARBOR      66      40/  4/  5 1020.7F
SOUTH LAKE BUOY   62 62  230/  8/ 10 1019.6F         1/ 3
4 MI NW BRIDGMAN  64 69  280/ 10/ 12 1020.3          2/ 4
MICHIGAN CITY     64 66   CALM  /  2   N/A           1/ 4

$$
&&



USA.gov is the U.S. government's official web portal to all federal, state and local government web resources and services.